Location: RyutenAO
(34.8939°N, 134.0022°E)
Time: 09:55:17
(UTC+09:00)

X-37B - Visible Passes

Search period start: 27 November 2022 00:00
Search period end: 07 December 2022 00:00
Orbit: 277 x 277 km, 45.0° (Epoch: 01 November)

Date Brightness Start Highest point End Pass type
(mag) Time Alt. Az. Time Alt. Az. Time Alt. Az.
27 Nov 2.3 05:57:08 12° WSW 05:57:55 13° SW 05:59:12 10° S visible
05 Dec 2.5 17:28:17 10° SSE 17:29:05 11° SE 17:29:54 10° ESE visible
05 Dec 3.9 19:00:39 10° WSW 19:00:41 10° WSW 19:00:41 10° WSW visible
06 Dec 1.5 17:27:36 10° SSW 17:29:38 23° SE 17:31:31 11° E visible
